Wind_Speed
51 44 40 41 43 37 39 35 36 32 32 32 31 30 28 28 29 30 32 33 34 36 38 39 40 41 42 42 39 40 40 38 41
52 45 45 40 43 44 43 41 39 33 33 34 34 34 33 32 32 32 32 32 34 36 36 36 36 37 36 38 40 40 40 36 33
55 51 41 48 44 45 46 42 40 39 39 37 36 36 38 37 35 34 33 34 34 33 35 36 38 39 39 39 40 39 37 32 31
56 54 53 49 52 50 42 41 43 41 41 43 41 41 39 38 38 35 34 34 35 35 35 35 35 35 35 36 36 36 35 32 30
56 58 59 58 56 52 52 51 44 38 41 41 39 38 37 38 38 36 37 35 36 36 36 35 35 35 34 33 31 32 31 31 31
61 60 62 61 61 59 58 54 52 47 42 46 45 44 44 45 44 41 41 39 39 39 38 36 36 35 35 34 33 32 32 33 32
68 66 63 65 62 59 64 61 57 51 49 46 48 48 47 47 47 45 45 42 43 43 42 40 39 38 37 35 36 35 36 36 35
76 74 68 66 66 64 62 60 56 55 53 55 51 50 49 49 50 49 47 46 46 47 46 45 43 43 41 40 38 38 37 35 35
83 76 76 73 70 67 64 63 63 62 59 57 55 54 54 54 52 53 51 48 47 49 50 48 48 48 46 44 41 41 40 38 38
90 87 82 77 79 76 74 69 68 68 69 66 63 63 56 54 54 56 53 51 50 51 52 52 52 52 51 48 48 45 43 42 40
97 94 93 85 83 82 84 83 81 71 71 72 71 72 67 64 63 60 59 57 55 55 55 53 52 54 55 54 51 51 49 45 42
100 103 100 97 89 78 86 84 83 79 79 77 76 76 76 77 76 73 67 65 64 61 59 58 56 54 57 59 57 55 55 53 53
89 96 104 105 101 93 82 78 86 82 80 76 77 77 76 77 79 76 77 73 70 70 66 67 62 59 58 58 58 57 56 53 53
90 92 96 98 102 83 83 84 84 93 87 79 77 79 81 79 79 78 75 72 71 72 70 72 73 69 68 63 60 58 56 53 54
95 92 92 92 100 106 96 92 81 77 89 95 87 82 80 85 84 81 81 79 78 77 75 77 77 76 74 72 68 65 64 61 61
103 100 97 94 92 95 97 92 80 75 82 94 101 96 85 82 81 82 84 84 86 86 81 80 79 78 78 75 72 71 70 68 66
104 106 106 99 98 97 96 94 93 85 84 87 91 97 95 91 87 83 83 86 88 90 90 88 82 77 75 76 78 78 74 72 71
100 105 105 107 108 105 103 101 99 105 95 95 95 100 98 99 96 91 90 87 89 89 89 87 84 83 84 82 79 78 79 79 74
84 87 94 104 111 113 112 111 107 101 99 91 85 86 92 100 104 104 100 97 90 91 96 94 90 89 89 89 88 87 86 86 83
77 82 78 84 95 109 117 120 116 113 108 101 93 86 85 92 105 101 106 107 103 102 99 98 99 99 98 99 97 94 92 90 89
Wind_Direction
237 237 241 248 242 238 244 235 235 231 235 237 238 237 234 236 241 240 240 241 242 245 246 248 250 252 257 258 262 262 261 266 269
231 236 234 235 244 239 239 234 233 232 234 236 237 241 241 242 243 245 245 245 246 248 250 253 254 254 257 256 259 262 262 264 270
238 228 238 233 230 240 243 234 238 241 241 240 241 241 242 243 243 244 246 247 249 251 252 252 254 255 257 260 263 266 271 270 270
231 235 230 221 230 232 234 239 246 248 247 245 242 242 242 243 244 244 246 247 247 249 252 256 256 255 257 259 262 266 268 269 269
234 230 232 237 230 231 237 235 238 239 246 242 238 239 246 246 245 247 248 249 250 249 250 251 256 258 259 262 263 266 267 268 268
234 236 232 232 234 234 233 235 239 241 239 246 240 245 249 251 249 245 249 249 250 251 250 251 253 257 259 261 262 264 264 267 269
238 238 236 232 231 237 238 241 240 241 244 239 244 247 251 249 250 246 250 251 252 252 251 251 251 253 256 260 264 266 266 267 266
235 238 239 237 237 236 237 240 241 244 243 243 243 241 244 248 246 249 248 251 254 254 254 253 252 253 254 257 259 262 264 265 266
233 235 240 242 240 238 240 243 242 241 242 240 241 243 242 244 245 247 248 249 253 256 257 256 253 254 254 256 257 258 258 259 262
232 233 234 239 244 242 240 241 243 247 248 248 243 239 240 242 249 248 246 248 251 254 257 259 259 256 255 257 258 259 257 258 260
232 234 234 235 236 242 246 249 247 243 243 247 250 250 246 244 248 250 247 244 246 250 253 256 260 260 258 258 262 261 260 259 257
236 235 234 235 237 237 244 248 246 247 242 244 245 248 249 252 252 251 250 247 247 244 247 250 254 257 260 261 261 263 264 266 263
235 237 237 237 236 239 241 244 248 245 240 239 241 242 246 247 250 251 251 248 249 250 247 249 247 252 252 258 260 261 262 265 269
237 237 237 238 240 237 242 237 242 246 243 241 241 242 244 243 245 246 245 245 248 246 249 251 251 249 250 251 255 257 258 261 263
240 239 237 238 238 238 238 239 242 245 245 245 238 239 242 246 246 245 246 245 242 245 250 252 252 253 253 253 254 256 258 259 261
242 239 239 239 237 239 238 236 236 249 241 238 243 240 236 239 246 247 248 247 247 245 245 249 250 253 254 253 254 254 258 259 259
242 241 239 238 239 238 238 232 230 228 233 242 241 242 240 238 238 241 246 247 248 249 248 248 246 248 252 253 254 255 256 256 256
246 244 243 240 237 238 239 238 234 231 237 244 246 242 243 242 237 238 242 246 246 246 247 246 245 249 251 251 249 251 252 252 256
253 249 247 244 240 237 237 238 237 234 231 235 236 244 242 241 241 242 242 242 243 245 244 242 244 247 250 253 255 256 255 253 253
257 253 249 244 242 240 238 236 236 236 231 228 231 237 243 243 243 243 243 243 244 244 244 245 247 249 251 249 251 251 250 251 251
Height
10799 10802 10807 10811 10815 10819 10820 10822 10824 10826 10827 10830 10831 10833 10836 10837 10839 10841 10843 10846 10848 10850 10852 10854 10854 10855 10856 10858 10859 10859 10860 10861 10861
10789 10794 10798 10802 10806 10811 10813 10815 10816 10819 10821 10823 10825 10828 10829 10831 10833 10835 10837 10839 10841 10843 10845 10846 10848 10849 10850 10852 10851 10853 10853 10855 10855
10779 10782 10789 10795 10797 10802 10805 10807 10809 10812 10814 10816 10819 10821 10822 10824 10826 10828 10831 10832 10833 10836 10837 10840 10841 10842 10844 10845 10845 10846 10847 10848 10848
10769 10774 10777 10777 10785 10791 10794 10798 10800 10803 10807 10809 10812 10814 10816 10817 10819 10822 10823 10825 10826 10828 10830 10832 10834 10835 10837 10838 10839 10840 10840 10841 10842
10759 10764 10767 10772 10776 10779 10783 10788 10790 10794 10798 10800 10803 10806 10809 10808 10811 10814 10815 10817 10819 10820 10822 10824 10826 10828 10829 10830 10832 10833 10834 10834 10835
10747 10751 10756 10761 10766 10770 10772 10775 10780 10784 10788 10792 10795 10798 10800 10801 10803 10806 10806 10810 10811 10813 10815 10817 10819 10820 10822 10823 10824 10825 10826 10827 10827
10733 10738 10743 10749 10755 10759 10763 10766 10769 10772 10777 10781 10785 10788 10790 10792 10794 10799 10797 10800 10803 10804 10807 10809 10811 10812 10813 10815 10816 10817 10817 10818 10819
10722 10726 10730 10736 10742 10748 10752 10756 10760 10763 10766 10770 10775 10777 10779 10782 10785 10786 10790 10792 10794 10796 10798 10802 10803 10803 10805 10806 10808 10808 10809 10810 10810
10713 10716 10719 10723 10730 10736 10739 10744 10749 10750 10754 10755 10761 10765 10768 10771 10774 10776 10780 10783 10785 10787 10787 10791 10794 10794 10796 10797 10799 10799 10800 10801 10802
10693 10700 10706 10712 10713 10721 10727 10729 10735 10738 10742 10744 10747 10751 10757 10760 10762 10765 10769 10774 10776 10776 10777 10780 10783 10784 10785 10787 10789 10790 10791 10792 10794
10677 10683 10690 10697 10700 10707 10709 10715 10720 10726 10730 10731 10735 10737 10744 10746 10750 10753 10758 10762 10764 10765 10766 10770 10772 10774 10776 10777 10779 10780 10781 10783 10784
10661 10666 10672 10678 10685 10693 10696 10698 10703 10708 10713 10718 10720 10721 10727 10732 10735 10741 10746 10750 10751 10752 10754 10758 10760 10763 10765 10767 10769 10770 10771 10773 10774
10636 10642 10650 10658 10667 10678 10684 10684 10683 10689 10693 10698 10704 10706 10711 10716 10718 10724 10730 10736 10738 10740 10741 10743 10748 10749 10753 10755 10758 10759 10760 10763 10762
10618 10626 10632 10640 10650 10669 10662 10661 10661 10669 10678 10684 10688 10691 10693 10698 10701 10709 10712 10719 10723 10725 10727 10729 10733 10736 10738 10743 10745 10746 10748 10751 10751
10598 10607 10614 10624 10631 10636 10642 10645 10650 10653 10658 10663 10667 10673 10678 10680 10687 10693 10695 10701 10705 10708 10711 10713 10717 10722 10724 10727 10732 10733 10734 10738 10738
10574 10581 10592 10602 10610 10618 10624 10629 10634 10643 10639 10634 10646 10653 10660 10664 10670 10675 10679 10682 10685 10690 10694 10697 10700 10705 10710 10712 10715 10719 10720 10722 10725
10552 10556 10567 10579 10588 10596 10603 10608 10616 10616 10616 10621 10624 10631 10641 10649 10652 10656 10661 10664 10665 10669 10676 10681 10684 10688 10692 10696 10698 10701 10704 10704 10709
10528 10534 10542 10551 10561 10571 10579 10586 10594 10600 10602 10605 10609 10608 10626 10631 10632 10637 10640 10644 10648 10650 10656 10663 10668 10670 10674 10677 10680 10683 10686 10688 10690
10503 10509 10515 10523 10532 10541 10552 10559 10569 10577 10584 10585 10585 10592 10598 10604 10612 10615 10621 10624 10629 10632 10636 10642 10648 10651 10654 10658 10662 10665 10668 10670 10673
10482 10484 10486 10493 10500 10508 10518 10529 10538 10550 10561 10562 10567 10571 10574 10581 10583 10596 10599 10603 10607 10612 10615 10622 10625 10630 10634 10637 10642 10645 10648 10650 10653